Time,TemperatureF,DewpointF,PressureIn,WindDirection,WindDirectionDegrees,WindSpeedMPH,WindSpeedGustMPH,Humidity,HourlyPrecipIn,Conditions,Clouds,dailyrainin,SoftwareType,DateUTC
2013-04-11 00:02:00,60.0,-99.9,30.06,WNW,300,18.0,24.0,-999,-99.99,,,-99.99,,2013-04-11 07:02:00,
2013-04-11 00:12:00,60.0,-99.9,30.06,NW,305,15.0,18.0,-999,-99.99,,,-99.99,,2013-04-11 07:12:00,
2013-04-11 00:22:00,60.0,-99.9,30.07,NW,312,5.0,13.0,-999,-99.99,,,-99.99,,2013-04-11 07:22:00,
2013-04-11 00:43:00,60.0,-99.9,30.06,NW,325,4.0,4.0,-999,-99.99,,,-99.99,,2013-04-11 07:43:00,
2013-04-11 00:52:00,60.0,-99.9,30.06,NNW,348,8.0,9.0,-999,-99.99,,,-99.99,,2013-04-11 07:52:00,
2013-04-11 01:03:00,60.0,-99.9,30.06,NNW,332,7.0,10.0,-999,-99.99,,,-99.99,,2013-04-11 08:03:00,
2013-04-11 01:22:00,60.0,-99.9,30.06,NW,312,13.0,21.0,-999,-99.99,,,-99.99,,2013-04-11 08:22:00,
2013-04-11 01:33:00,59.0,-99.9,30.06,NW,306,19.0,24.0,-999,-99.99,,,-99.99,,2013-04-11 08:33:00,
2013-04-11 01:43:00,59.0,-99.9,30.06,NW,310,18.0,23.0,-999,-99.99,,,-99.99,,2013-04-11 08:43:00,
2013-04-11 01:52:00,58.0,-99.9,30.06,NW,316,17.0,22.0,-999,-99.99,,,-99.99,,2013-04-11 08:52:00,
2013-04-11 02:02:00,58.0,-99.9,30.05,NW,318,18.0,24.0,-999,-99.99,,,-99.99,,2013-04-11 09:02:00,
2013-04-11 02:33:00,57.0,-99.9,30.04,NW,305,17.0,25.0,-999,-99.99,,,-99.99,,2013-04-11 09:33:00,
2013-04-11 02:43:00,57.0,-99.9,30.04,NW,305,17.0,25.0,-999,-99.99,,,-99.99,,2013-04-11 09:43:00,
2013-04-11 02:53:00,58.0,-99.9,30.03,WNW,303,19.0,25.0,-999,-99.99,,,-99.99,,2013-04-11 09:53:00,
2013-04-11 03:03:00,57.0,-99.9,30.03,NW,306,20.0,27.0,-999,-99.99,,,-99.99,,2013-04-11 10:03:00,
2013-04-11 03:13:00,56.0,-99.9,30.02,NW,305,22.0,28.0,-999,-99.99,,,-99.99,,2013-04-11 10:13:00,
2013-04-11 03:23:00,56.0,-99.9,30.02,NW,307,20.0,25.0,-999,-99.99,,,-99.99,,2013-04-11 10:23:00,
2013-04-11 03:32:00,55.0,-99.9,30.02,NW,312,17.0,26.0,-999,-99.99,,,-99.99,,2013-04-11 10:32:00,
2013-04-11 03:42:00,55.0,-99.9,30.02,NW,312,17.0,26.0,-999,-99.99,,,-99.99,,2013-04-11 10:42:00,
2013-04-11 03:53:00,55.0,-99.9,30.02,NW,312,17.0,26.0,-999,-99.99,,,-99.99,,2013-04-11 10:53:00,
2013-04-11 04:03:00,55.0,-99.9,30.02,NW,312,17.0,26.0,-999,-99.99,,,-99.99,,2013-04-11 11:03:00,
2013-04-11 04:23:00,53.0,-99.9,30.02,NW,317,20.0,23.0,-999,-99.99,,,-99.99,,2013-04-11 11:23:00,
2013-04-11 04:32:00,53.0,-99.9,30.04,NW,323,17.0,23.0,-999,-99.99,,,-99.99,,2013-04-11 11:32:00,
2013-04-11 04:43:00,52.0,-99.9,30.04,NNW,327,14.0,23.0,-999,-99.99,,,-99.99,,2013-04-11 11:43:00,
2013-04-11 04:53:00,53.0,-99.9,30.03,NW,309,14.0,18.0,-999,-99.99,,,-99.99,,2013-04-11 11:53:00,
2013-04-11 05:02:00,52.0,-99.9,30.04,NW,306,11.0,15.0,-999,-99.99,,,-99.99,,2013-04-11 12:02:00,
2013-04-11 05:13:00,52.0,-99.9,30.04,NW,316,12.0,19.0,-999,-99.99,,,-99.99,,2013-04-11 12:13:00,
2013-04-11 05:23:00,52.0,-99.9,30.03,WNW,296,11.0,17.0,-999,-99.99,,,-99.99,,2013-04-11 12:23:00,
2013-04-11 05:32:00,52.0,-99.9,30.03,WNW,300,9.0,16.0,-999,-99.99,,,-99.99,,2013-04-11 12:32:00,
2013-04-11 05:43:00,53.0,-99.9,30.03,NW,314,9.0,12.0,-999,-99.99,,,-99.99,,2013-04-11 12:43:00,
2013-04-11 05:53:00,53.0,-99.9,30.02,NW,320,10.0,14.0,-999,-99.99,,,-99.99,,2013-04-11 12:53:00,
2013-04-11 06:02:00,53.0,-99.9,30.03,NW,315,8.0,13.0,-999,-99.99,,,-99.99,,2013-04-11 13:02:00,
2013-04-11 06:13:00,53.0,-99.9,30.02,NW,306,7.0,10.0,-999,-99.99,,,-99.99,,2013-04-11 13:13:00,
2013-04-11 06:23:00,53.0,-99.9,30.02,NW,318,8.0,11.0,-999,-99.99,,,-99.99,,2013-04-11 13:23:00,
2013-04-11 06:33:00,53.0,-99.9,30.02,WNW,301,6.0,9.0,-999,-99.99,,,-99.99,,2013-04-11 13:33:00,
2013-04-11 06:43:00,53.0,-99.9,30.02,NW,314,6.0,9.0,-999,-99.99,,,-99.99,,2013-04-11 13:43:00,
2013-04-11 06:54:00,53.0,-99.9,30.02,NW,317,9.0,11.0,-999,-99.99,,,-99.99,,2013-04-11 13:54:00,
2013-04-11 07:03:00,53.0,-99.9,30.02,NW,318,9.0,11.0,-999,-99.99,,,-99.99,,2013-04-11 14:03:00,
2013-04-11 07:13:00,53.0,-99.9,30.03,NW,316,7.0,10.0,-999,-99.99,,,-99.99,,2013-04-11 14:13:00,
2013-04-11 07:22:00,53.0,-99.9,30.03,NW,323,8.0,9.0,-999,-99.99,,,-99.99,,2013-04-11 14:22:00,
2013-04-11 07:33:00,54.0,-99.9,30.03,NW,318,7.0,9.0,-999,-99.99,,,-99.99,,2013-04-11 14:33:00,
2013-04-11 07:43:00,54.0,-99.9,30.03,NW,320,7.0,8.0,-999,-99.99,,,-99.99,,2013-04-11 14:43:00,
2013-04-11 07:53:00,54.0,-99.9,30.04,NW,315,6.0,10.0,-999,-99.99,,,-99.99,,2013-04-11 14:53:00,
2013-04-11 08:03:00,53.0,-99.9,30.04,WNW,295,6.0,8.0,-999,-99.99,,,-99.99,,2013-04-11 15:03:00,
2013-04-11 08:12:00,53.0,-99.9,30.04,NW,311,5.0,7.0,-999,-99.99,,,-99.99,,2013-04-11 15:12:00,
2013-04-11 08:22:00,54.0,-99.9,30.04,WNW,282,2.0,4.0,-999,-99.99,,,-99.99,,2013-04-11 15:22:00,
2013-04-11 08:32:00,54.0,-99.9,30.04,West,264,3.0,5.0,-999,-99.99,,,-99.99,,2013-04-11 15:32:00,
2013-04-11 08:43:00,54.0,-99.9,30.04,WNW,293,2.0,4.0,-999,-99.99,,,-99.99,,2013-04-11 15:43:00,
2013-04-11 08:53:00,55.0,-99.9,30.04,WSW,239,3.0,4.0,-999,-99.99,,,-99.99,,2013-04-11 15:53:00,
2013-04-11 09:02:00,56.0,-99.9,30.04,ESE,112,2.0,4.0,-999,-99.99,,,-99.99,,2013-04-11 16:02:00,
2013-04-11 09:13:00,55.0,-99.9,30.04,South,170,3.0,3.0,-999,-99.99,,,-99.99,,2013-04-11 16:13:00,
2013-04-11 09:23:00,55.0,-99.9,30.04,SSE,167,4.0,5.0,-999,-99.99,,,-99.99,,2013-04-11 16:23:00,
2013-04-11 09:32:00,55.0,-99.9,30.04,SSE,168,4.0,6.0,-999,-99.99,,,-99.99,,2013-04-11 16:32:00,
2013-04-11 09:42:00,55.0,-99.9,30.04,SSE,164,4.0,6.0,-999,-99.99,,,-99.99,,2013-04-11 16:42:00,
2013-04-11 09:53:00,56.0,-99.9,30.04,SSE,148,3.0,5.0,-999,-99.99,,,-99.99,,2013-04-11 16:53:00,
2013-04-11 10:03:00,56.0,-99.9,30.03,South,179,4.0,4.0,-999,-99.99,,,-99.99,,2013-04-11 17:03:00,
2013-04-11 10:13:00,56.0,-99.9,30.03,SSW,202,3.0,6.0,-999,-99.99,,,-99.99,,2013-04-11 17:13:00,
2013-04-11 10:23:00,56.0,-99.9,30.03,South,170,7.0,8.0,-999,-99.99,,,-99.99,,2013-04-11 17:23:00,
2013-04-11 10:33:00,56.0,-99.9,30.03,SSE,163,6.0,8.0,-999,-99.99,,,-99.99,,2013-04-11 17:33:00,
2013-04-11 10:43:00,56.0,-99.9,30.03,SSE,164,6.0,8.0,-999,-99.99,,,-99.99,,2013-04-11 17:43:00,
2013-04-11 10:53:00,57.0,-99.9,30.03,SSE,165,5.0,7.0,-999,-99.99,,,-99.99,,2013-04-11 17:53:00,
2013-04-11 11:03:00,57.0,-99.9,30.03,SSE,155,7.0,9.0,-999,-99.99,,,-99.99,,2013-04-11 18:03:00,
2013-04-11 11:13:00,57.0,-99.9,30.03,SSE,155,7.0,9.0,-999,-99.99,,,-99.99,,2013-04-11 18:13:00,
2013-04-11 11:23:00,56.0,-99.9,30.03,SSE,163,7.0,10.0,-999,-99.99,,,-99.99,,2013-04-11 18:23:00,
2013-04-11 11:43:00,57.0,-99.9,30.03,South,190,6.0,9.0,-999,-99.99,,,-99.99,,2013-04-11 18:43:00,
2013-04-11 11:53:00,58.0,-99.9,30.02,South,185,5.0,7.0,-999,-99.99,,,-99.99,,2013-04-11 18:53:00,
2013-04-11 12:04:00,58.0,-99.9,30.02,SSE,167,4.0,6.0,-999,-99.99,,,-99.99,,2013-04-11 19:04:00,
2013-04-11 12:14:00,60.0,-99.9,30.02,SE,128,2.0,5.0,-999,-99.99,,,-99.99,,2013-04-11 19:14:00,
2013-04-11 12:23:00,59.0,-99.9,30.01,SSE,150,3.0,5.0,-999,-99.99,,,-99.99,,2013-04-11 19:23:00,
2013-04-11 12:33:00,59.0,-99.9,30.01,SSE,150,3.0,5.0,-999,-99.99,,,-99.99,,2013-04-11 19:33:00,
2013-04-11 12:43:00,60.0,-99.9,30.00,SSE,158,4.0,7.0,-999,-99.99,,,-99.99,,2013-04-11 19:43:00,
2013-04-11 13:03:00,61.0,-99.9,29.98,SSE,152,5.0,9.0,-999,-99.99,,,-99.99,,2013-04-11 20:03:00,
2013-04-11 13:13:00,57.0,-99.9,29.97,SSE,164,13.0,15.0,-999,-99.99,,,-99.99,,2013-04-11 20:13:00,
2013-04-11 13:22:00,57.0,-99.9,29.97,South,169,13.0,17.0,-999,-99.99,,,-99.99,,2013-04-11 20:22:00,
2013-04-11 13:34:00,58.0,-99.9,29.96,South,169,11.0,15.0,-999,-99.99,,,-99.99,,2013-04-11 20:34:00,
2013-04-11 13:43:00,60.0,-99.9,29.96,South,170,9.0,12.0,-999,-99.99,,,-99.99,,2013-04-11 20:43:00,
2013-04-11 13:53:00,61.0,-99.9,29.96,SSE,163,8.0,11.0,-999,-99.99,,,-99.99,,2013-04-11 20:53:00,
2013-04-11 14:03:00,62.0,-99.9,29.96,South,176,6.0,9.0,-999,-99.99,,,-99.99,,2013-04-11 21:03:00,
2013-04-11 14:13:00,62.0,-99.9,29.96,South,176,6.0,9.0,-999,-99.99,,,-99.99,,2013-04-11 21:13:00,
2013-04-11 14:23:00,63.0,-99.9,29.96,SSW,200,7.0,9.0,-999,-99.99,,,-99.99,,2013-04-11 21:23:00,
2013-04-11 14:33:00,63.0,-99.9,29.96,South,185,5.0,8.0,-999,-99.99,,,-99.99,,2013-04-11 21:33:00,
2013-04-11 14:43:00,63.0,-99.9,29.95,SSE,164,5.0,6.0,-999,-99.99,,,-99.99,,2013-04-11 21:43:00,
2013-04-11 14:54:00,63.0,-99.9,29.94,SE,130,3.0,5.0,-999,-99.99,,,-99.99,,2013-04-11 21:54:00,
2013-04-11 15:13:00,63.0,-99.9,29.94,SSE,159,5.0,6.0,-999,-99.99,,,-99.99,,2013-04-11 22:13:00,
2013-04-11 15:23:00,62.0,-99.9,29.93,SSE,161,6.0,7.0,-999,-99.99,,,-99.99,,2013-04-11 22:23:00,
2013-04-11 15:33:00,63.0,-99.9,29.93,SSE,162,6.0,7.0,-999,-99.99,,,-99.99,,2013-04-11 22:33:00,
2013-04-11 15:44:00,65.0,-99.9,29.92,SE,139,2.0,5.0,-999,-99.99,,,-99.99,,2013-04-11 22:44:00,
2013-04-11 15:53:00,63.0,-99.9,29.91,SSE,158,6.0,8.0,-999,-99.99,,,-99.99,,2013-04-11 22:53:00,
2013-04-11 16:04:00,62.0,-99.9,29.90,SSE,158,6.0,9.0,-999,-99.99,,,-99.99,,2013-04-11 23:04:00,
2013-04-11 16:13:00,61.0,-99.9,29.90,SSE,163,7.0,9.0,-999,-99.99,,,-99.99,,2013-04-11 23:13:00,
2013-04-11 16:23:00,61.0,-99.9,29.89,SSE,168,9.0,11.0,-999,-99.99,,,-99.99,,2013-04-11 23:23:00,
2013-04-11 16:33:00,60.0,-99.9,29.89,SSE,166,11.0,12.0,-999,-99.99,,,-99.99,,2013-04-11 23:33:00,
2013-04-11 16:43:00,60.0,-99.9,29.89,South,170,9.0,13.0,-999,-99.99,,,-99.99,,2013-04-11 23:43:00,
2013-04-11 16:54:00,60.0,-99.9,29.88,SSE,165,8.0,10.0,-999,-99.99,,,-99.99,,2013-04-11 23:54:00,
2013-04-11 17:02:00,60.0,-99.9,29.88,SSE,166,9.0,11.0,-999,-99.99,,,-99.99,,2013-04-12 00:02:00,
2013-04-11 17:22:00,61.0,-99.9,29.87,NW,324,3.0,7.0,-999,-99.99,,,-99.99,,2013-04-12 00:22:00,
2013-04-11 17:33:00,62.0,-99.9,29.87,ESE,115,3.0,5.0,-999,-99.99,,,-99.99,,2013-04-12 00:33:00,
2013-04-11 17:43:00,63.0,-99.9,29.87,SE,127,2.0,4.0,-999,-99.99,,,-99.99,,2013-04-12 00:43:00,
2013-04-11 17:53:00,63.0,-99.9,29.87,NNE,18,2.0,5.0,-999,-99.99,,,-99.99,,2013-04-12 00:53:00,
2013-04-11 18:03:00,65.0,-99.9,29.86,NNW,342,7.0,9.0,-999,-99.99,,,-99.99,,2013-04-12 01:03:00,
2013-04-11 18:12:00,65.0,-99.9,29.86,NNW,340,7.0,10.0,-999,-99.99,,,-99.99,,2013-04-12 01:12:00,
2013-04-11 18:23:00,64.0,-99.9,29.85,NNW,327,9.0,11.0,-999,-99.99,,,-99.99,,2013-04-12 01:23:00,
2013-04-11 18:33:00,63.0,-99.9,29.85,NNW,345,7.0,9.0,-999,-99.99,,,-99.99,,2013-04-12 01:33:00,
2013-04-11 18:42:00,63.0,-99.9,29.85,NNW,334,6.0,7.0,-999,-99.99,,,-99.99,,2013-04-12 01:42:00,
2013-04-11 18:53:00,63.0,-99.9,29.85,NW,325,11.0,14.0,-999,-99.99,,,-99.99,,2013-04-12 01:53:00,
2013-04-11 19:03:00,63.0,-99.9,29.85,NW,317,11.0,15.0,-999,-99.99,,,-99.99,,2013-04-12 02:03:00,
2013-04-11 19:13:00,62.0,-99.9,29.85,NW,322,11.0,13.0,-999,-99.99,,,-99.99,,2013-04-12 02:13:00,
2013-04-11 19:22:00,62.0,-99.9,29.85,NW,322,10.0,13.0,-999,-99.99,,,-99.99,,2013-04-12 02:22:00,
2013-04-11 19:32:00,62.0,-99.9,29.85,NW,318,12.0,15.0,-999,-99.99,,,-99.99,,2013-04-12 02:32:00,
2013-04-11 19:42:00,61.0,-99.9,29.85,NW,320,10.0,15.0,-999,-99.99,,,-99.99,,2013-04-12 02:42:00,
2013-04-11 19:53:00,61.0,-99.9,29.86,NW,323,11.0,13.0,-999,-99.99,,,-99.99,,2013-04-12 02:53:00,
2013-04-11 20:02:00,61.0,-99.9,29.85,NNW,327,8.0,11.0,-999,-99.99,,,-99.99,,2013-04-12 03:02:00,
2013-04-11 20:12:00,61.0,-99.9,29.85,NNW,327,8.0,11.0,-999,-99.99,,,-99.99,,2013-04-12 03:12:00,
2013-04-11 20:22:00,60.0,-99.9,29.85,North,357,4.0,6.0,-999,-99.99,,,-99.99,,2013-04-12 03:22:00,
2013-04-11 20:33:00,59.0,-99.9,29.85,SE,131,4.0,8.0,-999,-99.99,,,-99.99,,2013-04-12 03:33:00,
2013-04-11 20:43:00,58.0,-99.9,29.85,SSE,164,8.0,10.0,-999,-99.99,,,-99.99,,2013-04-12 03:43:00,
2013-04-11 20:53:00,58.0,-99.9,29.85,South,176,6.0,10.0,-999,-99.99,,,-99.99,,2013-04-12 03:53:00,
2013-04-11 21:03:00,59.0,-99.9,29.86,South,190,7.0,10.0,-999,-99.99,,,-99.99,,2013-04-12 04:03:00,
2013-04-11 21:13:00,58.0,-99.9,29.86,SSW,196,6.0,9.0,-999,-99.99,,,-99.99,,2013-04-12 04:13:00,
2013-04-11 21:23:00,57.0,-99.9,29.87,SSW,210,6.0,8.0,-999,-99.99,,,-99.99,,2013-04-12 04:23:00,
2013-04-11 21:33:00,57.0,-99.9,29.87,SSW,207,5.0,8.0,-999,-99.99,,,-99.99,,2013-04-12 04:33:00,
2013-04-11 21:43:00,58.0,-99.9,29.87,SSW,201,3.0,6.0,-999,-99.99,,,-99.99,,2013-04-12 04:43:00,
2013-04-11 21:53:00,58.0,-99.9,29.88,South,190,4.0,5.0,-999,-99.99,,,-99.99,,2013-04-12 04:53:00,
2013-04-11 22:03:00,58.0,-99.9,29.88,SSW,201,3.0,5.0,-999,-99.99,,,-99.99,,2013-04-12 05:03:00,
2013-04-11 22:12:00,57.0,-99.9,29.88,South,171,4.0,5.0,-999,-99.99,,,-99.99,,2013-04-12 05:12:00,
2013-04-11 22:23:00,57.0,-99.9,29.88,SSE,164,3.0,5.0,-999,-99.99,,,-99.99,,2013-04-12 05:23:00,
2013-04-11 22:32:00,56.0,-99.9,29.88,SSE,148,2.0,6.0,-999,-99.99,,,-99.99,,2013-04-12 05:32:00,
2013-04-11 22:42:00,55.0,-99.9,29.88,SSE,164,7.0,8.0,-999,-99.99,,,-99.99,,2013-04-12 05:42:00,
2013-04-11 23:02:00,55.0,-99.9,29.88,SSE,166,11.0,13.0,-999,-99.99,,,-99.99,,2013-04-12 06:02:00,
2013-04-11 23:12:00,55.0,-99.9,29.88,South,169,8.0,11.0,-999,-99.99,,,-99.99,,2013-04-12 06:12:00,
2013-04-11 23:22:00,55.0,-99.9,29.88,South,180,7.0,11.0,-999,-99.99,,,-99.99,,2013-04-12 06:22:00,
2013-04-11 23:32:00,55.0,-99.9,29.88,South,176,7.0,9.0,-999,-99.99,,,-99.99,,2013-04-12 06:32:00,
2013-04-11 23:42:00,54.0,-99.9,29.88,SSE,167,7.0,9.0,-999,-99.99,,,-99.99,,2013-04-12 06:42:00,
2013-04-11 23:52:00,55.0,-99.9,29.87,South,169,7.0,8.0,-999,-99.99,,,-99.99,,2013-04-12 06:52:00,